[[{"header":{"parameterUnit":"m.s-1","parameterCategory":1,"la1":30.2991,"la2":30.254,"lo1":-89.0895,"lo2":-89.0444,"dy":0.0017,"dx":0.0017,"nx":28,"ny":28,"refTime":"2024-08-20T09:00:00:Z","depth":0,"parameterNumber":2,"parameterNumberName":"U-component_of_WINDS"},"data":[0,0,0,0,0,0,0,0,0,0,0,0,0,0,0,0,0,0,0,0,0,0,0,0,0,0,0,0,0,0,0,0,0,0,0,0,0,0,0,0,0,0,0,0,0,0,0,0,0,0,0,0,0,0,0,0,0,0,-0.058,-0.0579,0,-0.0498,-0.0497,-0.0496,-0.0462,-0.0462,-0.0462,-0.0462,-0.0382,-0.0379,-0.0377,0,0,0,0,0,0,0,0,0,0,0,0,0,-0.0711,-0.0709,-0.058,-0.0579,-0.0578,-0.0498,-0.0497,-0.0496,-0.0462,-0.0462,-0.0462,-0.0462,-0.0382,-0.038,-0.0377,0,0,0,0,0,0,0,0,0,0,0,0,0,-0.0644,-0.0708,-0.058,-0.0551,-0.0548,-0.0498,-0.0497,-0.0495,-0.0462,-0.0462,-0.0462,-0.0462,-0.0383,-0.038,-0.0377,-0.0351,0,0,-0.0366,-0.0365,0,0,0,0,0,0,0,0,-0.0648,-0.0639,-0.0557,-0.0553,-0.0549,-0.049,-0.0513,-0.0447,-0.0461,-0.0494,-0.0462,-0.0462,-0.0418,-0.0412,-0.0396,-0.0347,-0.0344,-0.0366,-0.0364,-0.0362,-0.0361,0,0,0,0,0,0,0,-0.0652,-0.0643,-0.0548,-0.0555,-0.0551,-0.0543,-0.0534,-0.0501,-0.0456,-0.0492,-0.0489,-0.0479,-0.0416,-0.0399,-0.0394,-0.0342,-0.0366,-0.0363,-0.0361,-0.0359,-0.0267,-0.0266,0,0,0,0,0,0,-0.0661,-0.0647,-0.055,-0.0545,-0.06,-0.0541,-0.053,-0.0509,-0.0456,-0.0448,-0.0479,-0.0478,-0.0405,-0.0398,-0.0391,-0.0356,-0.0362,-0.0359,-0.0357,-0.0267,-0.0267,-0.0266,0,0,0,0,0,0,-0.0664,-0.0653,-0.0554,-0.0595,-0.0582,-0.0538,-0.0514,-0.0507,-0.049,-0.0447,-0.0439,-0.047,-0.0405,-0.0395,-0.036,-0.0353,-0.0358,-0.0354,-0.0268,-0.0267,-0.0266,-0.0287,0,0,0,0,0,0,-0.0668,-0.0654,-0.0644,-0.0595,-0.058,-0.0524,-0.0514,-0.0505,-0.0484,-0.0482,-0.0436,-0.0429,-0.0404,-0.0366,-0.0357,-0.0348,-0.0352,-0.0268,-0.0267,-0.0267,-0.0287,-0.0287,-0.0287,0,0,0,0,0,-0.0673,-0.0654,-0.0643,-0.0632,-0.0565,-0.0524,-0.0515,-0.0486,-0.0484,-0.0473,-0.0444,-0.043,-0.0355,-0.0362,-0.0352,-0.0342,-0.0268,-0.0267,-0.0267,-0.0287,-0.0287,-0.0287,0,0,0,0,0,0,-0.0705,-0.0647,-0.0635,-0.0599,-0.0566,-0.0518,-0.0503,-0.0487,-0.0456,-0.0455,-0.0421,-0.0411,-0.0379,-0.0357,-0.0366,-0.0314,-0.031,-0.0307,-0.0329,-0.0329,-0.0329,-0.0336,-0.0349,0,0,0,0,0,-0.0707,-0.0677,-0.0629,-0.0602,-0.0586,-0.0548,-0.0528,-0.0508,-0.0474,-0.046,-0.0429,-0.0397,-0.0366,-0.0346,-0.0315,-0.0283,-0.0272,-0.0271,-0.0271,-0.0272,-0.027,-0.025,-0.0249,-0.0263,-0.0263,-0.0263,0,0,-0.0713,-0.0678,-0.0661,-0.0608,-0.058,-0.055,-0.0536,-0.0506,-0.0484,-0.0456,-0.042,-0.0396,-0.0358,-0.0324,-0.0307,-0.0305,-0.0263,-0.0271,-0.0271,-0.0269,-0.0249,-0.0248,-0.0247,-0.0262,-0.0263,-0.0263,0,0,-0.0708,-0.0678,-0.0652,-0.0624,-0.0581,-0.0555,-0.0549,-0.0502,-0.0485,-0.0448,-0.0426,-0.04,-0.0347,-0.032,-0.0299,-0.0282,-0.0268,-0.0273,-0.0275,-0.0256,-0.0255,-0.0253,-0.0247,-0.0245,-0.0271,-0.0271,-0.0271,0,-0.0721,-0.0674,-0.0641,-0.0611,-0.0588,-0.0559,-0.0533,-0.0507,-0.0458,-0.0443,-0.044,-0.0371,-0.0344,-0.0302,-0.0298,-0.0282,-0.0274,-0.0278,-0.0257,-0.0256,-0.0254,-0.0247,-0.0245,-0.0272,-0.0272,-0.0272,-0.0271,0,-0.0692,-0.066,-0.0644,-0.0594,-0.0569,-0.0541,-0.0504,-0.0483,-0.0465,-0.0439,-0.0402,-0.0367,-0.0328,-0.0316,-0.0299,-0.0272,-0.0272,-0.0264,-0.026,-0.0254,-0.0247,-0.0244,-0.0273,-0.0273,-0.0272,-0.0272,0,0,-0.0706,-0.0636,-0.0631,-0.0608,-0.0557,-0.0532,-0.0503,-0.0462,-0.0445,-0.0411,-0.0385,-0.034,-0.0331,-0.0308,-0.0288,-0.0271,-0.0258,-0.0265,-0.0263,-0.0264,-0.0225,-0.0232,-0.0229,-0.0248,-0.0247,-0.0247,-0.0228,0,-0.0694,-0.0638,-0.0607,-0.0565,-0.0534,-0.0505,-0.0479,-0.0446,-0.0421,-0.0392,-0.0365,-0.0333,-0.0325,-0.031,-0.0292,-0.0264,-0.025,-0.0264,-0.0225,-0.0223,-0.0235,-0.0226,-0.0233,-0.0217,-0.0226,-0.0225,-0.0225,0,-0.0674,-0.0638,-0.0592,-0.0543,-0.0529,-0.0506,-0.0466,-0.0438,-0.04,-0.0383,-0.0355,-0.0334,-0.0302,-0.03,-0.0256,-0.0266,-0.0248,-0.0231,-0.023,-0.0225,-0.0224,-0.0221,-0.0212,-0.0209,-0.022,-0.0221,-0.0221,0,-0.0688,-0.0629,-0.0593,-0.0573,-0.0516,-0.05,-0.0476,-0.0437,-0.0415,-0.038,-0.0365,-0.0327,-0.0307,-0.0279,-0.0248,-0.025,-0.0206,-0.0202,-0.0192,-0.0192,-0.0184,-0.0185,-0.0172,-0.0172,-0.0173,-0.0173,-0.0173,0,-0.0678,-0.0651,-0.0598,-0.0576,-0.0545,-0.0509,-0.0479,-0.0453,-0.0418,-0.0391,-0.0365,-0.034,-0.0301,-0.0271,-0.0247,-0.0213,-0.0205,-0.019,-0.0184,-0.0193,-0.0194,-0.0181,-0.0181,-0.0172,-0.0172,-0.0172,-0.0172,0,-0.069,-0.0653,-0.0612,-0.056,-0.0546,-0.0525,-0.0481,-0.0459,-0.0432,-0.0398,-0.0388,-0.0345,-0.0309,-0.0275,-0.0228,-0.0211,-0.0177,-0.017,-0.019,-0.0187,-0.0178,-0.0179,-0.0155,-0.015,-0.0154,-0.0154,-0.0154,0,-0.0686,-0.0664,-0.0609,-0.0588,-0.0563,-0.053,-0.0506,-0.0469,-0.0445,-0.0398,-0.0382,-0.0343,-0.0311,-0.0254,-0.022,-0.0183,-0.0174,-0.0168,-0.0168,-0.0177,-0.0173,-0.0175,-0.0173,-0.0169,-0.0169,-0.0169,-0.0169,0,-0.0683,-0.0665,-0.0631,-0.0589,-0.0561,-0.0527,-0.0493,-0.0477,-0.0434,-0.0409,-0.037,-0.0345,-0.0294,-0.0256,-0.0215,-0.0191,-0.0173,-0.0169,-0.0164,-0.0173,-0.0186,-0.0178,-0.0191,-0.017,-0.017,-0.017,-0.017,-0.017,-0.0687,-0.0665,-0.0622,-0.0584,-0.0554,-0.0522,-0.0498,-0.0466,-0.0433,-0.0388,-0.0369,-0.033,-0.029,-0.0232,-0.0208,-0.0177,-0.0174,-0.0168,-0.0166,-0.0165,-0.0166,-0.019,-0.017,-0.017,-0.017,-0.017,-0.017,0,-0.0682,-0.0652,-0.0618,-0.0569,-0.0539,-0.0522,-0.0483,-0.0459,-0.0424,-0.0388,-0.0356,-0.0311,-0.0273,-0.0235,-0.0195,-0.0178,-0.0169,-0.0169,-0.017,-0.0165,-0.0172,-0.018,-0.0177,-0.0177,-0.0177,-0.0177,-0.0177,-0.0177,-0.0676,-0.0639,-0.0616,-0.0562,-0.0533,-0.0493,-0.0472,-0.0442,-0.0413,-0.0363,-0.0331,-0.0306,-0.0269,-0.0226,-0.019,-0.018,-0.0167,-0.0169,-0.0157,-0.0165,-0.0164,-0.0164,-0.0171,-0.0167,-0.0167,-0.0152,-0.0152,-0.0152]},{"header":{"parameterUnit":"m.s-1","parameterCategory":1,"la1":30.2991,"la2":30.254,"lo1":-89.0895,"lo2":-89.0444,"dy":0.0017,"dx":0.0017,"nx":28,"ny":28,"refTime":"2024-08-20T09:00:00:Z","depth":0,"parameterNumber":3,"parameterNumberName":"V-component_of_WINDS"},"data":[0,0,0,0,0,0,0,0,0,0,0,0,0,0,0,0,0,0,0,0,0,0,0,0,0,0,0,0,0,0,0,0,0,0,0,0,0,0,0,0,0,0,0,0,0,0,0,0,0,0,0,0,0,0,0,0,0,0,-2.9199,-2.9199,0,-2.9171,-2.9171,-2.917,-2.9134,-2.9133,-2.9132,-2.9132,-2.9103,-2.9102,-2.9102,0,0,0,0,0,0,0,0,0,0,0,0,0,-2.9219,-2.9219,-2.9199,-2.9199,-2.9198,-2.9171,-2.9171,-2.917,-2.9134,-2.9133,-2.9132,-2.9132,-2.9103,-2.9102,-2.9102,0,0,0,0,0,0,0,0,0,0,0,0,0,-2.9203,-2.9219,-2.9199,-2.9177,-2.9175,-2.9171,-2.9171,-2.917,-2.9134,-2.9133,-2.9132,-2.9131,-2.9103,-2.9102,-2.9102,-2.9118,0,0,-2.9101,-2.9101,0,0,0,0,0,0,0,0,-2.9204,-2.9202,-2.918,-2.9178,-2.9176,-2.9155,-2.9167,-2.9153,-2.9134,-2.9149,-2.9132,-2.9131,-2.9121,-2.9119,-2.9116,-2.9117,-2.9116,-2.9101,-2.9101,-2.9101,-2.9101,0,0,0,0,0,0,0,-2.9205,-2.9203,-2.9188,-2.918,-2.9177,-2.9168,-2.9164,-2.9164,-2.914,-2.9148,-2.9145,-2.9142,-2.9119,-2.9116,-2.9115,-2.9115,-2.9101,-2.9101,-2.9101,-2.9101,-2.9126,-2.9127,0,0,0,0,0,0,-2.9209,-2.9204,-2.9189,-2.9187,-2.9188,-2.9168,-2.9164,-2.9162,-2.914,-2.9136,-2.9143,-2.9141,-2.9117,-2.9115,-2.9113,-2.9129,-2.9101,-2.9101,-2.91,-2.9125,-2.9126,-2.9127,0,0,0,0,0,0,-2.921,-2.9208,-2.919,-2.9195,-2.9192,-2.9169,-2.9167,-2.9162,-2.9159,-2.9137,-2.9132,-2.9144,-2.9116,-2.9114,-2.9117,-2.9128,-2.91,-2.91,-2.9124,-2.9125,-2.9126,-2.9162,0,0,0,0,0,0,-2.9211,-2.9209,-2.9215,-2.9195,-2.9192,-2.9195,-2.9168,-2.9163,-2.9159,-2.9155,-2.9137,-2.9133,-2.9115,-2.9118,-2.9117,-2.9127,-2.91,-2.9123,-2.9125,-2.9126,-2.916,-2.9164,-2.9168,0,0,0,0,0,-2.9212,-2.9227,-2.9216,-2.9214,-2.9199,-2.9195,-2.9193,-2.9173,-2.916,-2.9166,-2.9151,-2.9133,-2.9127,-2.9118,-2.9117,-2.9127,-2.9122,-2.9124,-2.9126,-2.9158,-2.9163,-2.9168,0,0,0,0,0,0,-2.9249,-2.9224,-2.9211,-2.9221,-2.921,-2.9189,-2.9196,-2.918,-2.9173,-2.917,-2.9145,-2.9141,-2.9147,-2.9137,-2.9128,-2.914,-2.9122,-2.9123,-2.9146,-2.9152,-2.9156,-2.9158,-2.91,0,0,0,0,0,-2.9258,-2.9258,-2.9236,-2.9246,-2.9241,-2.922,-2.9217,-2.9202,-2.9191,-2.9186,-2.9172,-2.9161,-2.9156,-2.9153,-2.9148,-2.9158,-2.9153,-2.9164,-2.9169,-2.9172,-2.9174,-2.9177,-2.9181,-2.9133,-2.9133,-2.9133,0,0,-2.9278,-2.9264,-2.9265,-2.9253,-2.9243,-2.9242,-2.9216,-2.9217,-2.9215,-2.9186,-2.9187,-2.9176,-2.9162,-2.9169,-2.9171,-2.9161,-2.9186,-2.9175,-2.9178,-2.9177,-2.9179,-2.9184,-2.9188,-2.9135,-2.9134,-2.9134,0,0,-2.9312,-2.9302,-2.9309,-2.9299,-2.9285,-2.927,-2.9271,-2.9252,-2.9243,-2.9245,-2.9222,-2.922,-2.9213,-2.9203,-2.9197,-2.9226,-2.9208,-2.9225,-2.9247,-2.925,-2.9253,-2.9256,-2.9265,-2.9269,-2.9226,-2.9226,-2.9226,0,-2.9338,-2.9336,-2.9314,-2.9315,-2.931,-2.9283,-2.9289,-2.9281,-2.9265,-2.9262,-2.9251,-2.924,-2.9229,-2.9231,-2.9238,-2.9235,-2.9234,-2.9226,-2.9255,-2.9258,-2.926,-2.9268,-2.9272,-2.9228,-2.9228,-2.9228,-2.9228,0,-2.9367,-2.9366,-2.9373,-2.9358,-2.9354,-2.9357,-2.9335,-2.9333,-2.9318,-2.9304,-2.9305,-2.929,-2.928,-2.928,-2.9266,-2.928,-2.9274,-2.9259,-2.924,-2.9267,-2.9274,-2.9277,-2.9231,-2.923,-2.923,-2.9229,0,0,-2.9425,-2.9397,-2.94,-2.9392,-2.9373,-2.9371,-2.9373,-2.9363,-2.9361,-2.9351,-2.9351,-2.9344,-2.933,-2.9323,-2.9308,-2.9311,-2.9332,-2.9295,-2.9294,-2.9301,-2.9344,-2.9355,-2.9359,-2.9321,-2.9321,-2.9321,-2.9345,0,-2.9455,-2.9457,-2.9436,-2.9443,-2.9441,-2.9414,-2.9415,-2.9403,-2.939,-2.9385,-2.937,-2.9366,-2.9348,-2.9343,-2.9345,-2.9329,-2.934,-2.9327,-2.9319,-2.9319,-2.9322,-2.9363,-2.9374,-2.9397,-2.9348,-2.9348,-2.9348,0,-2.949,-2.9481,-2.9488,-2.9467,-2.9465,-2.9467,-2.9455,-2.9451,-2.9436,-2.9426,-2.9418,-2.94,-2.9399,-2.9381,-2.9378,-2.937,-2.9365,-2.9356,-2.9357,-2.9354,-2.9335,-2.936,-2.9404,-2.9407,-2.9353,-2.9352,-2.9352,0,-2.953,-2.952,-2.9522,-2.9516,-2.9492,-2.9493,-2.9483,-2.9467,-2.9462,-2.9452,-2.9448,-2.9438,-2.9432,-2.9424,-2.9403,-2.9392,-2.9402,-2.9382,-2.9392,-2.9392,-2.9395,-2.9395,-2.9437,-2.9394,-2.9394,-2.9394,-2.9394,0,-2.9565,-2.957,-2.9539,-2.954,-2.9544,-2.952,-2.9524,-2.9511,-2.9497,-2.9494,-2.9471,-2.9469,-2.9442,-2.9436,-2.942,-2.9419,-2.9417,-2.9408,-2.9403,-2.9409,-2.941,-2.9405,-2.9403,-2.9395,-2.9394,-2.9394,-2.9394,0,-2.961,-2.959,-2.959,-2.9567,-2.9561,-2.9564,-2.9544,-2.9544,-2.9528,-2.9525,-2.9523,-2.9499,-2.9491,-2.9469,-2.9456,-2.9444,-2.9448,-2.944,-2.9453,-2.9449,-2.946,-2.9459,-2.95,-2.9503,-2.9459,-2.9459,-2.946,0,-2.9633,-2.9636,-2.9613,-2.9609,-2.96,-2.9595,-2.9589,-2.9565,-2.956,-2.9542,-2.9543,-2.9534,-2.9524,-2.9512,-2.9493,-2.9482,-2.9473,-2.9488,-2.9471,-2.9477,-2.9472,-2.9471,-2.9471,-2.9492,-2.9492,-2.9493,-2.9493,0,-2.9676,-2.9665,-2.9658,-2.9647,-2.964,-2.963,-2.9619,-2.9617,-2.959,-2.9586,-2.9577,-2.957,-2.9555,-2.9545,-2.9531,-2.9519,-2.9501,-2.9499,-2.95,-2.9506,-2.9513,-2.9508,-2.9461,-2.9498,-2.9497,-2.9497,-2.9497,-2.9497,-2.9709,-2.971,-2.9693,-2.9685,-2.9674,-2.9664,-2.9661,-2.9645,-2.9638,-2.9624,-2.9611,-2.9603,-2.9586,-2.9565,-2.9555,-2.9548,-2.9538,-2.9541,-2.9541,-2.9542,-2.9544,-2.9515,-2.9545,-2.9545,-2.9545,-2.9545,-2.9545,0,-2.9749,-2.9737,-2.973,-2.9715,-2.9708,-2.9692,-2.9678,-2.9673,-2.9667,-2.9653,-2.9644,-2.9633,-2.9623,-2.9602,-2.959,-2.9588,-2.9579,-2.9585,-2.9584,-2.9582,-2.9554,-2.9553,-2.9592,-2.9592,-2.9592,-2.9592,-2.9592,-2.9592,-2.9769,-2.9769,-2.9756,-2.9749,-2.9736,-2.9729,-2.9722,-2.9712,-2.97,-2.9689,-2.968,-2.9667,-2.965,-2.9635,-2.9625,-2.9619,-2.9614,-2.9623,-2.9614,-2.9588,-2.9584,-2.958,-2.9579,-2.9623,-2.9623,-2.9642,-2.9643,-2.9643]}]]